{"data":{"norad_id":65338,"intl_designator":"2025-189R","name":"STARLINK-34751","alt_names":[],"object_type":"PAYLOAD","status":"ACTIVE","operator":null,"country":"US","launch_date":"2025-08-27","launch_site_code":"AFETR","launch_vehicle":null,"mission":null,"orbit_class":"UNKNOWN","rcs_meters":null,"size_class":null,"mass_kg":null,"dimensions":null,"purposes":["comms"],"wikipedia_slug":null,"has_3d_model":false,"image_url":null,"decayed_at":null,"tle_current":{"epoch":"2026-05-24T16:15:28.739808Z","epoch_age_seconds":93111,"freshness":"FRESH","line1":"1 65338U 25189R   26144.67741597  .00014239  00000+0  46960-3 0  9999","line2":"2 65338  53.1581 213.5885 0001165  84.2771 275.8363 15.31709469 42740","mean_motion":15.31709469,"eccentricity":0.0001165,"inclination_deg":53.1581,"raan_deg":213.5885,"arg_perigee_deg":84.2771,"mean_anomaly_deg":275.8363,"bstar":0.0004696,"rev_number":4274,"period_min":94.012606773276,"perigee_km":469.91387789323,"apogee_km":471.50965965635,"semimajor_km":6848.8487687748,"source":"CELESTRAK","updated_at":"2026-05-25T13:38:20.761405Z"}}}